• Join FlightAware (Why Join?)
  • Login
  • US Flag 
08:05AM EST


 

Airport Tracker/Info


-or-


 

Live Flight TrackerFlight Track Log ✈ ASQ120B ✈ 06-May-2012 ✈ KCLE - KATL

Flight Track Log - Related Links

Times and Time Zones

All times are in EDT time to prevent confusion due to time zone crossing. See the ASQ120B flight status page for this flight to view local times or setup timezone preferences in your user account.

Time Position Orientation Groundspeed Altitude Reporting Facility
EDT Latitude Longitude Course Direction KTS MPH feet Rate Location/Type
08:18PM 41.4175 -81.8319 80° East 163 188 1,800  Level Cleveland Center
08:19PM 41.4264 -81.7628 93° East 218 251 3,200 1,707 Climbing Cleveland Center
08:20PM 41.4231 -81.6825 186° South 239 275 5,100 1,950 Climbing Cleveland Center
08:21PM 41.3542 -81.6922 213° Southwest 185 213 7,100 2,100 Climbing Cleveland Center
08:22PM 41.2911 -81.7467 208° Southwest 199 229 9,300 1,650 Climbing Cleveland Center
08:23PM 41.2219 -81.7950 210° Southwest 264 304 10,400 900 Climbing Cleveland Center
08:24PM 41.1397 -81.8569 211° Southwest 303 349 11,100 1,150 Climbing Cleveland Center
08:25PM 41.0431 -81.9347 210° Southwest 357 411 12,700 1,600 Climbing Cleveland Center
08:26PM 40.9567 -82.0019 209° Southwest 371 427 14,300 1,400 Climbing Cleveland Center
08:27PM 40.8664 -82.0686 210° Southwest 371 427 15,500 1,109 Climbing Cleveland Center
08:28PM 40.7778 -82.1350 209° Southwest 371 427 16,500 1,037 Climbing Cleveland Center
08:30PM 40.5736 -82.2811 210° Southwest 393 452 18,800 1,031 Climbing Indianapolis Center
08:31PM 40.4806 -82.3508 208° Southwest 388 447 19,800 1,050 Climbing Indianapolis Center
08:32PM 40.3853 -82.4181 209° Southwest 393 452 20,900 1,050 Climbing Indianapolis Center
08:33PM 40.2881 -82.4875 209° Southwest 393 452 21,900 950 Climbing Indianapolis Center
08:34PM 40.1989 -82.5514 197° South 400 460 22,800 950 Climbing Indianapolis Center
08:35PM 40.0825 -82.5967 182° South 407 468 23,800 1,050 Climbing Indianapolis Center
08:36PM 39.9658 -82.6008 184° South 412 474 24,900 1,100 Climbing Indianapolis Center
08:37PM 39.8492 -82.6106 182° South 417 480 26,000 1,150 Climbing Indianapolis Center
08:38PM 39.7344 -82.6147 183° South 417 480 27,200 1,150 Climbing Indianapolis Center
08:39PM 39.6219 -82.6217 184° South 417 480 28,300 1,100 Climbing Indianapolis Center
08:40PM 39.5094 -82.6311 183° South 412 474 29,400 1,100 Climbing Indianapolis Center
08:41PM 39.3992 -82.6381 183° South 407 468 30,500 1,050 Climbing Indianapolis Center
08:42PM 39.2969 -82.6447 183° South 400 460 31,500 1,050 Climbing Indianapolis Center
08:43PM 39.1864 -82.6514 185° South 400 460 32,600 1,150 Climbing Indianapolis Center
08:44PM 39.0803 -82.6636 183° South 400 460 33,800 1,150 Climbing Indianapolis Center
08:45PM 38.9656 -82.6703 184° South 405 466 34,900 1,050 Climbing Indianapolis Center
08:46PM 38.8550 -82.6797 183° South 405 466 35,900 550 Climbing Indianapolis Center
08:47PM 38.7383 -82.6864 183° South 405 466 36,000 50 Climbing Indianapolis Center
08:48PM 38.6194 -82.6931 182° South 416 479 36,000  Level Indianapolis Center
08:49PM 38.4944 -82.7000 183° South 447 514 36,000  Level Indianapolis Center
08:50PM 38.3672 -82.7094 182° South 459 528 36,000  Level Indianapolis Center
08:51PM 38.2442 -82.7161 183° South 459 528 36,000  Level Indianapolis Center
08:52PM 38.1233 -82.7253 182° South 449 517 36,000  Level Indianapolis Center
08:53PM 37.9961 -82.7322 192° South 449 517 36,000  Level Indianapolis Center
08:54PM 37.8733 -82.7650 193° South 455 524 36,000  Level Indianapolis Center
08:55PM 37.7547 -82.8006 192° South 445 512 36,000  Level Indianapolis Center
08:56PM 37.6361 -82.8331 193° South 445 512 36,000  Level Indianapolis Center
08:57PM 37.5172 -82.8683 193° South 450 518 36,000  Level Indianapolis Center
08:58PM 37.4008 -82.9033 185° South 444 511 36,000  Level Indianapolis Center
09:01PM 37.0106 -82.9419 185° South 437 503 36,000  Level Atlanta Center
09:02PM 36.8878 -82.9567 183° South 444 511 36,000  Level Atlanta Center
09:03PM 36.7708 -82.9633 184° South 461 531 36,000  Level Atlanta Center
09:06PM 36.4000 -82.9967 184° South 445 512 36,000  Level Atlanta Center
09:07PM 36.2667 -83.0086 185° South 445 512 36,000  Level Atlanta Center
09:08PM 36.1458 -83.0206 184° South 440 506 36,000  Level Atlanta Center
09:09PM 36.0250 -83.0322 184° South 440 506 36,000  Level Atlanta Center
09:10PM 35.9042 -83.0414 185° South 440 506 36,000  Level Atlanta Center
09:11PM 35.7853 -83.0531 191° South 440 506 36,000 -100 Level Atlanta Center
09:12PM 35.6686 -83.0803 190° South 433 498 35,800 -400 Descending Atlanta Center
09:13PM 35.5458 -83.1072 190° South 433 498 35,200 -550 Descending Atlanta Center
09:14PM 35.4228 -83.1339 191° South 452 520 34,700 -750 Descending Atlanta Center
09:15PM 35.3019 -83.1633 191° South 452 520 33,700 -1,000 Descending Atlanta Center
09:16PM 35.1875 -83.1900 190° South 438 504 32,700 -1,000 Descending Atlanta Center
09:17PM 35.0728 -83.2139 194° South 427 491 31,700 -950 Descending Atlanta Center
09:18PM 34.9606 -83.2481 207° Southwest 427 491 30,800 -1,250 Descending Atlanta Center
09:19PM 34.8606 -83.3097 210° Southwest 417 480 29,200 -1,950 Descending Atlanta Center
09:20PM 34.7672 -83.3764 208° Southwest 398 458 26,900 -2,300 Descending Atlanta Center
09:21PM 34.6736 -83.4378 211° Southwest 392 451 24,600 -2,300 Descending Atlanta Center
09:22PM 34.5925 -83.4964 210° Southwest 392 451 22,300 -2,450 Descending Atlanta Center
09:23PM 34.5050 -83.5572 210° Southwest 375 432 19,700 -2,600 Descending Atlanta Center
09:24PM 34.4197 -83.6158 210° Southwest 364 419 17,100 -2,600 Descending Atlanta Center
09:25PM 34.3364 -83.6739 209° Southwest 353 406 14,500 -1,550 Descending Atlanta Center
09:26PM 34.2425 -83.7372 210° Southwest 359 413 14,000 -250 Descending Atlanta Center
09:27PM 34.1550 -83.7978 212° Southwest 354 407 14,000  Level Atlanta Center
09:28PM 34.0781 -83.8558 219° Southwest 351 404 14,000 -412 Level Atlanta Center
09:29PM 34.0333 -83.9000 226° Southwest 295 339 13,300 -1,111 Descending Atlanta TRACON
09:30PM 33.9667 -83.9833 220° Southwest 300 345 12,000 -645 Descending Atlanta TRACON
09:31PM 33.9167 -84.0333 220° Southwest 302 348 12,000  Level Atlanta TRACON
09:32PM 33.8500 -84.1000 207° Southwest 302 348 12,000  Level Atlanta TRACON
09:33PM 33.7667 -84.1500 248° West 304 350 12,000 -190 Level Atlanta TRACON
09:34PM 33.7333 -84.2500 270° West 280 322 11,600 -524 Descending Atlanta TRACON
09:35PM 33.7333 -84.3500 270° West 306 352 10,900 -1,105 Descending Atlanta TRACON
09:36PM 33.7333 -84.4333 270° West 286 329 9,500 -1,286 Descending Atlanta TRACON
09:37PM 33.7333 -84.5167 270° West 232 267 8,200 -1,762 Descending Atlanta TRACON
09:38PM 33.7333 -84.6000 220° Southwest 242 278 5,800 -2,056 Descending Atlanta TRACON
09:39PM 33.7000 -84.6333 151° Southeast 208 239 4,500 -1,053 Descending Atlanta TRACON
09:40PM 33.6500 -84.6000 90° East 182 209 3,800 -850 Descending Atlanta TRACON
09:41PM 33.6500 -84.5500 90° East 178 205 2,800 -952 Descending Atlanta TRACON
09:42PM 33.6500 -84.5000 90° East 145 167 1,800 -800 Descending Atlanta TRACON
09:43PM 33.6500 -84.4500 121° Southeast 144 166 1,200 -667 Descending Atlanta TRACON
09:50PM 33.6333 -84.4167 121° Southeast  Level FlightAware Approximate